Location: Chircca
(13.7944°S, 72.0608°W)
Time: 04:30:39
(UTC+00:00)

H-2A R/B - Pass Details

Date: 14 July 2020
Orbit: 732 x 838 km, 98.2° (Epoch: 14 August)

Event Time Altitude Azimuth Distance (km) Brightness Sun altitude
Exits shadow 01:34:17 19° 300° (WNW) 1,892 4.5 -42.0°
Drops below altitude 10° 01:36:06 10° 314° (NW) 2,439 5.1 -42.4°
Sets 01:38:44 0° 325° (NW) 3,371 5.9 -43.0°
